CZ-4B R/B (29507 NORAD) Tracking and Keplerian Element Data

This shows tracking and keplerian element data for the satellite.

Feedback or suggestion? Click here.




ElementValue
Catalog29507
NameCZ-4B R/B
Epoch Orbit87009
Epoch Day269.87169513
Epoch Year2022
RAAN299.5396
Inclination97.7226
Eccentricity0.0041963
Argument of Perigee249.0381
Mean Anonmoly110.6351
Mean Motion15.0208538
Decay Rate1.031E-05
L11 29507U 06046C 22269.87169513 .00001031 00000+0 81944-4 0 9994
L22 29507 97.7226 299.5396 0041963 249.0381 110.6351 15.02085380870094

Live tracking and technical data element details for CZ-4B R/B (NORAD 29507). CZ-4B R/B can be tracked NOW for your location showing map with azimuth and elevation plus other details from your city location.

Track the satellite on the map from your city or location and see movement details for azimuth, elevation, latitude, longitude, range, height, and movement on the map or in text.







IsCatalogInMostPopularTable: catalog: 29507, numindb: 943
Update: records affected: 1



GetName: 29507 CZ-4B R/B

Hit Count: updated at: Fri, 30 Sep 2022 02:58:21 GMT